| time (UTC) | temp F | wind direction | speed knots | gust knots | rain 1hr in | rain 24hr in | rain mn in | humidity % | barometer mb |
| 20260506073046 | 64 | 0 | 0.0 | 3.5 | 0.06 | 0.06 | 0.06 | 84 | 1020.3 |
| 20260506071556 | 65 | 0 | 0.0 | 4.3 | 0.02 | 0.02 | 0.02 | 82 | 1020.3 |
| 20260506061545 | 69 | 23 | 0.0 | 5.2 | 0.00 | 0.00 | 0.00 | 72 | 1020.1 |
| 20260506044550 | 72 | 0 | 0.0 | 3.5 | 0.00 | 0.00 | 0.00 | 68 | 1019.9 |
| 20260506043047 | 72 | 0 | 0.0 | 5.2 | 0.00 | 0.00 | 0.00 | 68 | 1020.1 |
| 20260506041553 | 73 | 352 | 2.6 | 8.7 | 0.00 | 0.00 | 0.00 | 68 | 1020.1 |
| 20260506040055 | 72 | 0 | 0.0 | 6.1 | 0.00 | 0.00 | 0.00 | 67 | 1020.2 |
| 20260506034550 | 72 | 24 | 0.9 | 5.2 | 0.00 | 0.00 | 0.00 | 67 | 1020.3 |
| 20260506033045 | 73 | 15 | 0.0 | 9.6 | 0.00 | 0.00 | 0.00 | 67 | 1020.4 |
| 20260506031547 | 72 | 0 | 0.0 | 7.0 | 0.00 | 0.00 | 0.00 | 69 | 1020.5 |
| 20260506024600 | 72 | 303 | 1.7 | 7.8 | 0.00 | 0.00 | 0.00 | 72 | 1020.8 |
| 20260506023053 | 71 | 0 | 0.0 | 6.1 | 0.00 | 0.00 | 0.00 | 70 | 1021.1 |
| 20260506021559 | 69 | 0 | 0.9 | 4.3 | 0.00 | 0.00 | 0.00 | 76 | 1021.6 |
| 20260506020048 | 69 | 51 | 1.7 | 5.2 | 0.00 | 0.00 | 0.00 | 75 | 1021.5 |
| 20260506014557 | 70 | 0 | 0.9 | 6.1 | 0.00 | 0.00 | 0.00 | 74 | 1021.7 |
| 20260506013054 | 71 | 0 | 1.7 | 7.0 | 0.00 | 0.00 | 0.00 | 72 | 1021.7 |
| 20260506011548 | 71 | 0 | 1.7 | 5.2 | 0.00 | 0.00 | 0.00 | 73 | 1021.9 |
| 20260506010056 | 69 | 38 | 1.7 | 7.8 | 0.00 | 0.00 | 0.00 | 76 | 1022.0 |
| 20260506004551 | 68 | 34 | 0.0 | 6.1 | 0.00 | 0.00 | 0.00 | 78 | 1022.3 |
| 20260506003045 | 68 | 0 | 1.7 | 7.8 | 0.00 | 0.00 | 0.00 | 77 | 1022.5 |
| 20260506001546 | 67 | 65 | 1.7 | 4.3 | 0.00 | 0.00 | 0.00 | 79 | 1022.7 |
| 20260506000043 | 66 | 13 | 0.0 | 7.0 | 0.00 | 0.00 | 0.00 | 81 | 1022.8 |
| 20260505234542 | 65 | 0 | 0.9 | 5.2 | 0.00 | 0.00 | 0.00 | 82 | 1022.8 |
| 20260505233045 | 65 | 16 | 1.7 | 7.0 | 0.00 | 0.00 | 0.00 | 81 | 1022.7 |
| 20260505231548 | 65 | 28 | 0.9 | 6.1 | 0.00 | 0.00 | 0.00 | 82 | 1022.8 |
| 20260505230049 | 65 | 32 | 1.7 | 7.0 | 0.00 | 0.00 | 0.00 | 82 | 1022.7 |
| 20260505224548 | 66 | 0 | 1.7 | 5.2 | 0.00 | 0.00 | 0.00 | 81 | 1022.6 |
| 20260505223052 | 66 | 55 | 0.9 | 6.1 | 0.00 | 0.00 | 0.00 | 81 | 1022.6 |
| 20260505221547 | 65 | 0 | 0.0 | 2.6 | 0.00 | 0.00 | 0.00 | 83 | 1022.7 |
| 20260505220049 | 63 | 0 | 0.0 | 2.6 | 0.00 | 0.00 | 0.00 | 85 | 1022.5 |
| 20260505214545 | 62 | 0 | 0.0 | 2.6 | 0.00 | 0.00 | 0.00 | 85 | 1022.3 |
| 20260505213051 | 63 | 51 | 0.9 | 3.5 | 0.00 | 0.00 | 0.00 | 85 | 1022.1 |
| 20260505211547 | 61 | 0 | 0.0 | 0.0 | 0.00 | 0.00 | 0.00 | 87 | 1022.1 |
| 20260505210048 | 60 | 0 | 0.0 | 0.0 | 0.00 | 0.00 | 0.00 | 89 | 1022.0 |
| 20260505204549 | 59 | 0 | 0.0 | 0.0 | 0.00 | 0.00 | 0.00 | 91 | 1021.9 |
| 20260505203056 | 59 | 0 | 0.0 | 0.0 | 0.00 | 0.00 | 0.00 | 91 | 1021.9 |
| 20260505201550 | 59 | 0 | 0.0 | 0.0 | 0.00 | 0.00 | 0.00 | 91 | 1021.6 |
| 20260505200051 | 58 | 0 | 0.0 | 0.0 | 0.00 | 0.00 | 0.00 | 91 | 1021.6 |
| 20260505194552 | 58 | 0 | 0.0 | 2.6 | 0.00 | 0.00 | 0.00 | 91 | 1021.7 |
| 20260505193105 | 58 | 30 | 0.0 | 3.5 | 0.00 | 0.00 | 0.00 | 91 | 1021.5 |
| 20260505191558 | 59 | 38 | 0.0 | 7.8 | 0.00 | 0.00 | 0.00 | 91 | 1021.3 |
| 20260505190045 | 59 | 32 | 0.9 | 3.5 | 0.00 | 0.00 | 0.00 | 91 | 1021.1 |
| 20260505184553 | 59 | 55 | 0.0 | 3.5 | 0.00 | 0.00 | 0.00 | 91 | 1020.8 |
| 20260505183052 | 59 | 27 | 0.9 | 5.2 | 0.00 | 0.00 | 0.00 | 90 | 1020.9 |
| 20260505181540 | 59 | 0 | 0.0 | 6.1 | 0.00 | 0.00 | 0.00 | 90 | 1020.8 |
| 20260505180052 | 59 | 50 | 0.0 | 2.6 | 0.00 | 0.00 | 0.00 | 90 | 1021.0 |
| 20260505174545 | 59 | 0 | 0.0 | 3.5 | 0.00 | 0.00 | 0.00 | 90 | 1021.0 |
| 20260505173046 | 60 | 0 | 0.0 | 5.2 | 0.00 | 0.00 | 0.00 | 91 | 1020.9 |
| 20260505171548 | 60 | 12 | 0.9 | 4.3 | 0.00 | 0.00 | 0.00 | 91 | 1021.1 |
| 20260505170043 | 60 | 20 | 0.0 | 3.5 | 0.00 | 0.00 | 0.00 | 91 | 1021.3 |
| 20260505164549 | 60 | 0 | 0.9 | 4.3 | 0.00 | 0.00 | 0.00 | 90 | 1021.2 |
| 20260505163052 | 60 | 9 | 0.0 | 3.5 | 0.00 | 0.00 | 0.00 | 90 | 1021.3 |
| 20260505161546 | 60 | 0 | 0.0 | 3.5 | 0.00 | 0.00 | 0.00 | 90 | 1021.5 |
| 20260505153101 | 62 | 0 | 0.0 | 4.3 | 0.00 | 0.00 | 0.00 | 89 | 1021.5 |
| 20260505151551 | 62 | 0 | 0.0 | 4.3 | 0.00 | 0.00 | 0.00 | 89 | 1021.6 |
| 20260505124544 | 63 | 0 | 0.0 | 0.0 | 0.00 | 0.00 | 0.00 | 82 | 1022.6 |
| 20260505123053 | 63 | 0 | 0.0 | 0.0 | 0.00 | 0.00 | 0.00 | 81 | 1022.6 |
| 20260505121550 | 64 | 0 | 0.0 | 0.0 | 0.00 | 0.00 | 0.00 | 81 | 1022.1 |
| 20260505120055 | 63 | 0 | 0.0 | 0.0 | 0.00 | 0.00 | 0.00 | 82 | 1022.1 |
| 20260505114546 | 64 | 0 | 0.0 | 0.0 | 0.00 | 0.00 | 0.00 | 82 | 1022.0 |
| 20260505113052 | 64 | 0 | 0.0 | 0.0 | 0.00 | 0.00 | 0.00 | 83 | 1022.2 |
| 20260505111548 | 65 | 0 | 0.0 | 0.0 | 0.00 | 0.00 | 0.00 | 82 | 1022.3 |
| 20260505101547 | 66 | 0 | 0.0 | 0.0 | 0.00 | 0.00 | 0.00 | 78 | 1022.3 |
| 20260505100051 | 66 | 0 | 0.0 | 0.0 | 0.00 | 0.00 | 0.00 | 78 | 1022.0 |
| 20260505094549 | 67 | 0 | 0.0 | 0.0 | 0.00 | 0.00 | 0.00 | 78 | 1022.1 |
| 20260505093048 | 67 | 0 | 0.0 | 0.0 | 0.00 | 0.00 | 0.00 | 77 | 1021.9 |
| 20260505091610 | 67 | 0 | 0.0 | 0.0 | 0.00 | 0.00 | 0.00 | 76 | 1022.0 |
| 20260505090104 | 67 | 0 | 0.0 | 0.0 | 0.00 | 0.00 | 0.00 | 75 | 1021.8 |
| 20260505084607 | 67 | 0 | 0.0 | 0.0 | 0.00 | 0.00 | 0.00 | 75 | 1021.6 |
| 20260505083104 | 68 | 0 | 0.0 | 0.0 | 0.00 | 0.00 | 0.00 | 74 | 1021.5 |
| 20260505081556 | 68 | 0 | 0.0 | 0.0 | 0.00 | 0.00 | 0.00 | 73 | 1021.2 |